Time,TemperatureF,DewpointF,PressureIn,WindDirection,WindDirectionDegrees,WindSpeedMPH,WindSpeedGustMPH,Humidity,HourlyPrecipIn,Conditions,Clouds,dailyrainin,SoftwareType,DateUTC
2013-02-25 00:01:00,31.7,19.0,30.09,North,5,7.1,10.0,59,0.00,NA,NA,0.01,WeatherLink_script,2013-02-25 05:01:00,
2013-02-25 00:05:00,31.7,19.0,30.09,North,1,6.5,9.0,59,0.00,NA,NA,0.01,WeatherLink_script,2013-02-25 05:05:00,
2013-02-25 00:07:00,31.6,18.9,30.10,North,355,6.1,7.0,59,0.00,NA,NA,0.01,WeatherLink_script,2013-02-25 05:07:00,
2013-02-25 00:09:00,31.6,18.5,30.10,NNW,347,5.8,9.0,58,0.00,NA,NA,0.01,WeatherLink_script,2013-02-25 05:09:00,
2013-02-25 00:13:00,31.4,18.4,30.11,North,5,5.4,7.0,58,0.00,NA,NA,0.01,WeatherLink_script,2013-02-25 05:13:00,
2013-02-25 00:20:00,31.3,18.2,30.11,North,357,6.2,7.0,58,0.00,NA,NA,0.01,WeatherLink_script,2013-02-25 05:20:00,
2013-02-25 00:21:00,31.3,19.8,30.10,North,358,5.5,7.0,62,0.00,NA,NA,0.01,WeatherLink_script,2013-02-25 05:21:00,
2013-02-25 00:22:00,31.2,19.7,30.11,North,358,6.3,7.0,62,0.00,NA,NA,0.01,WeatherLink_script,2013-02-25 05:22:00,
2013-02-25 00:24:00,31.2,18.1,30.10,North,356,6.0,7.0,58,0.00,NA,NA,0.01,WeatherLink_script,2013-02-25 05:24:00,
2013-02-25 00:26:00,31.0,18.0,30.10,North,358,5.8,7.0,58,0.00,NA,NA,0.01,WeatherLink_script,2013-02-25 05:26:00,
2013-02-25 00:36:00,30.7,17.7,30.10,North,353,5.4,7.0,58,0.00,NA,NA,0.01,WeatherLink_script,2013-02-25 05:36:00,
2013-02-25 00:50:00,30.4,17.4,30.10,North,349,4.8,6.0,58,0.00,NA,NA,0.01,WeatherLink_script,2013-02-25 05:50:00,
2013-02-25 00:55:00,32.0,19.7,30.09,North,358,7.1,9.0,60,0.00,NA,NA,0.01,WeatherLink_script,2013-02-25 05:55:00,
2013-02-25 00:58:00,30.3,17.7,30.10,North,352,4.1,6.0,59,0.00,NA,NA,0.01,WeatherLink_script,2013-02-25 05:58:00,
2013-02-25 01:00:00,30.3,17.3,30.10,North,359,3.8,6.0,58,0.00,NA,NA,0.01,WeatherLink_script,2013-02-25 06:00:00,
2013-02-25 01:02:00,30.3,17.3,30.10,North,358,3.8,5.0,58,0.00,NA,NA,0.01,WeatherLink_script,2013-02-25 06:02:00,
2013-02-25 01:04:00,31.7,19.0,30.09,North,7,7.2,8.0,59,0.00,NA,NA,0.01,WeatherLink_script,2013-02-25 06:04:00,
2013-02-25 01:07:00,30.1,17.2,30.10,North,0,3.5,5.0,58,0.00,NA,NA,0.01,WeatherLink_script,2013-02-25 06:07:00,
2013-02-25 01:11:00,31.6,18.5,30.10,NNW,347,5.8,9.0,58,0.00,NA,NA,0.01,WeatherLink_script,2013-02-25 06:11:00,
2013-02-25 01:13:00,30.1,17.2,30.11,NE,46,3.2,5.0,58,0.00,NA,NA,0.01,WeatherLink_script,2013-02-25 06:13:00,
2013-02-25 01:15:00,30.1,17.1,30.11,NNE,21,3.7,5.0,58,0.00,NA,NA,0.01,WeatherLink_script,2013-02-25 06:15:00,
2013-02-25 01:16:00,31.4,18.4,30.11,North,2,5.6,7.0,58,0.00,NA,NA,0.01,WeatherLink_script,2013-02-25 06:16:00,
2013-02-25 01:21:00,31.3,18.3,30.11,North,350,5.2,6.0,58,0.00,NA,NA,0.01,WeatherLink_script,2013-02-25 06:21:00,
2013-02-25 01:27:00,31.0,18.0,30.10,North,359,6.2,7.0,58,0.00,NA,NA,0.01,WeatherLink_script,2013-02-25 06:27:00,
2013-02-25 01:32:00,30.9,17.9,30.10,North,359,7.0,9.0,58,0.00,NA,NA,0.01,WeatherLink_script,2013-02-25 06:32:00,
2013-02-25 01:38:00,30.7,17.7,30.10,North,353,5.4,7.0,58,0.00,NA,NA,0.01,WeatherLink_script,2013-02-25 06:38:00,
2013-02-25 01:43:00,30.6,18.0,30.11,North,7,3.6,5.0,59,0.00,NA,NA,0.01,WeatherLink_script,2013-02-25 06:43:00,
2013-02-25 01:48:00,30.5,17.5,30.11,North,2,3.4,4.0,58,0.00,NA,NA,0.01,WeatherLink_script,2013-02-25 06:48:00,
2013-02-25 01:53:00,30.5,17.5,30.10,North,357,6.0,7.0,58,0.00,NA,NA,0.01,WeatherLink_script,2013-02-25 06:53:00,
2013-02-25 01:58:00,30.4,17.8,30.10,NNW,347,3.7,5.0,59,0.00,NA,NA,0.01,WeatherLink_script,2013-02-25 06:58:00,
2013-02-25 02:03:00,30.3,17.7,30.10,North,359,3.9,6.0,59,0.00,NA,NA,0.01,WeatherLink_script,2013-02-25 07:03:00,
2013-02-25 02:10:00,30.2,17.2,30.10,NNE,14,3.1,5.0,58,0.00,NA,NA,0.01,WeatherLink_script,2013-02-25 07:10:00,
2013-02-25 02:17:00,30.1,17.1,30.11,NNE,21,3.7,5.0,58,0.00,NA,NA,0.01,WeatherLink_script,2013-02-25 07:17:00,
2013-02-25 02:22:00,30.1,16.7,30.10,North,356,5.9,7.0,57,0.00,NA,NA,0.01,WeatherLink_script,2013-02-25 07:22:00,
2013-02-25 02:27:00,30.1,16.3,30.09,North,0,5.6,6.0,56,0.00,NA,NA,0.01,WeatherLink_script,2013-02-25 07:27:00,
2013-02-25 02:32:00,30.1,16.4,30.10,NNE,26,3.6,6.0,56,0.00,NA,NA,0.01,WeatherLink_script,2013-02-25 07:32:00,
2013-02-25 02:37:00,30.1,16.3,30.10,North,357,4.5,6.0,56,0.00,NA,NA,0.01,WeatherLink_script,2013-02-25 07:37:00,
2013-02-25 02:42:00,30.2,16.4,30.10,North,1,5.7,7.0,56,0.00,NA,NA,0.01,WeatherLink_script,2013-02-25 07:42:00,
2013-02-25 02:47:00,30.2,16.0,30.10,North,4,6.4,8.0,55,0.00,NA,NA,0.01,WeatherLink_script,2013-02-25 07:47:00,
2013-02-25 02:52:00,30.2,16.0,30.11,NNE,17,6.6,8.0,55,0.00,NA,NA,0.01,WeatherLink_script,2013-02-25 07:52:00,
2013-02-25 02:57:00,30.2,16.4,30.11,North,1,7.9,9.0,56,0.00,NA,NA,0.01,WeatherLink_script,2013-02-25 07:57:00,
2013-02-25 03:03:00,30.3,16.5,30.10,North,359,7.4,9.0,56,0.00,NA,NA,0.01,WeatherLink_script,2013-02-25 08:03:00,
2013-02-25 03:08:00,30.3,16.5,30.10,North,359,5.2,7.0,56,0.00,NA,NA,0.01,WeatherLink_script,2013-02-25 08:08:00,
2013-02-25 03:13:00,30.2,16.4,30.11,NNE,14,3.4,5.0,56,0.00,NA,NA,0.01,WeatherLink_script,2013-02-25 08:13:00,
2013-02-25 03:18:00,30.0,16.2,30.11,North,3,4.5,6.0,56,0.00,NA,NA,0.01,WeatherLink_script,2013-02-25 08:18:00,
2013-02-25 03:23:00,29.9,16.1,30.11,NNE,23,4.8,6.0,56,0.00,NA,NA,0.01,WeatherLink_script,2013-02-25 08:23:00,
2013-02-25 03:28:00,29.9,16.5,30.11,NE,42,3.8,5.0,57,0.00,NA,NA,0.01,WeatherLink_script,2013-02-25 08:28:00,
2013-02-25 03:33:00,29.5,16.2,30.11,NNE,13,3.7,5.0,57,0.00,NA,NA,0.01,WeatherLink_script,2013-02-25 08:33:00,
2013-02-25 03:38:00,29.5,16.1,30.11,NNE,14,3.3,4.0,57,0.00,NA,NA,0.01,WeatherLink_script,2013-02-25 08:38:00,
2013-02-25 03:43:00,29.4,16.1,30.11,NNE,12,5.4,7.0,57,0.00,NA,NA,0.01,WeatherLink_script,2013-02-25 08:43:00,
2013-02-25 03:48:00,29.5,16.1,30.11,North,5,5.3,6.0,57,0.00,NA,NA,0.01,WeatherLink_script,2013-02-25 08:48:00,
2013-02-25 03:53:00,29.7,16.4,30.11,North,357,6.8,9.0,57,0.00,NA,NA,0.01,WeatherLink_script,2013-02-25 08:53:00,
2013-02-25 03:58:00,29.9,16.5,30.09,North,354,6.5,8.0,57,0.00,NA,NA,0.01,WeatherLink_script,2013-02-25 08:58:00,
2013-02-25 04:03:00,29.9,16.5,30.09,North,351,6.1,8.0,57,0.00,NA,NA,0.01,WeatherLink_script,2013-02-25 09:03:00,
2013-02-25 04:09:00,29.8,16.8,30.09,North,359,4.0,5.0,58,0.00,NA,NA,0.01,WeatherLink_script,2013-02-25 09:09:00,
2013-02-25 04:14:00,29.7,16.4,30.11,North,0,1.8,3.0,57,0.00,NA,NA,0.01,WeatherLink_script,2013-02-25 09:14:00,
2013-02-25 04:19:00,29.5,16.2,30.12,North,0,2.7,3.0,57,0.00,NA,NA,0.00,WeatherLink_script,2013-02-25 09:19:00,
2013-02-25 04:24:00,29.4,16.5,30.12,North,0,2.6,4.0,58,0.00,NA,NA,0.00,WeatherLink_script,2013-02-25 09:24:00,
2013-02-25 04:29:00,29.1,16.2,30.12,North,0,0.8,2.0,58,0.00,NA,NA,0.00,WeatherLink_script,2013-02-25 09:29:00,
2013-02-25 04:34:00,29.0,16.1,30.13,North,0,2.0,3.0,58,0.00,NA,NA,0.00,WeatherLink_script,2013-02-25 09:34:00,
2013-02-25 04:39:00,28.9,16.4,30.13,North,0,0.3,1.0,59,0.00,NA,NA,0.00,WeatherLink_script,2013-02-25 09:39:00,
2013-02-25 04:44:00,28.9,16.0,30.14,North,0,0.0,0.0,58,0.00,NA,NA,0.00,WeatherLink_script,2013-02-25 09:44:00,
2013-02-25 04:45:00,28.5,16.4,30.15,North,0,2.5,3.0,60,0.00,NA,NA,0.00,WeatherLink_script,2013-02-25 09:45:00,
2013-02-25 04:46:00,28.5,16.4,30.15,North,0,1.3,3.0,60,0.00,NA,NA,0.00,WeatherLink_script,2013-02-25 09:46:00,
2013-02-25 04:49:00,28.8,16.3,30.14,North,0,0.7,1.0,59,0.00,NA,NA,0.00,WeatherLink_script,2013-02-25 09:49:00,
2013-02-25 04:53:00,28.2,16.5,30.15,NNE,15,1.5,2.0,61,0.00,NA,NA,0.00,WeatherLink_script,2013-02-25 09:53:00,
2013-02-25 04:54:00,28.6,16.1,30.14,North,0,0.8,3.0,59,0.00,NA,NA,0.00,WeatherLink_script,2013-02-25 09:54:00,
2013-02-25 04:57:00,28.1,16.4,30.15,NNE,24,1.9,3.0,61,0.00,NA,NA,0.00,WeatherLink_script,2013-02-25 09:57:00,
2013-02-25 04:59:00,28.6,16.1,30.14,North,0,1.4,3.0,59,0.00,NA,NA,0.00,WeatherLink_script,2013-02-25 09:59:00,
2013-02-25 05:03:00,28.0,16.6,30.14,NNE,26,3.1,4.0,62,0.00,NA,NA,0.00,WeatherLink_script,2013-02-25 10:03:00,
2013-02-25 05:04:00,28.5,16.1,30.14,North,0,0.0,0.0,59,0.00,NA,NA,0.00,WeatherLink_script,2013-02-25 10:04:00,
2013-02-25 05:05:00,28.1,16.8,30.14,NNE,26,3.2,5.0,62,0.00,NA,NA,0.00,WeatherLink_script,2013-02-25 10:05:00,
2013-02-25 05:07:00,28.0,16.7,30.14,NE,36,3.7,4.0,62,0.00,NA,NA,0.00,WeatherLink_script,2013-02-25 10:07:00,
2013-02-25 05:09:00,28.5,16.4,30.13,North,0,0.0,0.0,60,0.00,NA,NA,0.00,WeatherLink_script,2013-02-25 10:09:00,
2013-02-25 05:13:00,28.0,16.7,30.14,South,189,2.9,4.0,62,0.00,NA,NA,0.00,WeatherLink_script,2013-02-25 10:13:00,
2013-02-25 05:14:00,28.4,16.3,30.13,North,0,0.8,2.0,60,0.00,NA,NA,0.00,WeatherLink_script,2013-02-25 10:14:00,
2013-02-25 05:19:00,28.4,16.3,30.13,North,0,2.8,4.0,60,0.00,NA,NA,0.00,WeatherLink_script,2013-02-25 10:19:00,
2013-02-25 05:24:00,28.5,16.4,30.14,North,0,1.2,2.0,60,0.00,NA,NA,0.00,WeatherLink_script,2013-02-25 10:24:00,
2013-02-25 05:26:00,27.8,16.9,30.14,North,359,0.8,3.0,63,0.00,NA,NA,0.00,WeatherLink_script,2013-02-25 10:26:00,
2013-02-25 05:29:00,28.5,16.4,30.14,North,0,2.9,4.0,60,0.00,NA,NA,0.00,WeatherLink_script,2013-02-25 10:29:00,
2013-02-25 05:34:00,28.5,16.4,30.13,North,0,2.2,3.0,60,0.00,NA,NA,0.00,WeatherLink_script,2013-02-25 10:34:00,
2013-02-25 05:36:00,27.6,16.7,30.15,North,359,2.0,3.0,63,0.00,NA,NA,0.00,WeatherLink_script,2013-02-25 10:36:00,
2013-02-25 05:39:00,28.5,16.4,30.14,North,0,2.3,3.0,60,0.00,NA,NA,0.00,WeatherLink_script,2013-02-25 10:39:00,
2013-02-25 05:40:00,27.6,16.7,30.14,North,359,1.3,2.0,63,0.00,NA,NA,0.00,WeatherLink_script,2013-02-25 10:40:00,
2013-02-25 05:44:00,28.5,16.4,30.14,North,0,2.9,4.0,60,0.00,NA,NA,0.00,WeatherLink_script,2013-02-25 10:44:00,
2013-02-25 05:49:00,28.4,16.3,30.15,North,0,1.3,3.0,60,0.00,NA,NA,0.00,WeatherLink_script,2013-02-25 10:49:00,
2013-02-25 05:56:00,28.2,16.5,30.15,NNE,21,2.2,3.0,61,0.00,NA,NA,0.00,WeatherLink_script,2013-02-25 10:56:00,
2013-02-25 06:02:00,28.1,16.8,30.15,NNE,26,2.6,4.0,62,0.00,NA,NA,0.00,WeatherLink_script,2013-02-25 11:02:00,
2013-02-25 06:10:00,28.1,16.8,30.14,ENE,59,2.9,5.0,62,0.00,NA,NA,0.00,WeatherLink_script,2013-02-25 11:10:00,
2013-02-25 06:16:00,28.0,16.7,30.14,North,351,2.7,4.0,62,0.00,NA,NA,0.00,WeatherLink_script,2013-02-25 11:16:00,
2013-02-25 06:21:00,28.0,17.0,30.14,North,359,3.0,4.0,63,0.00,NA,NA,0.00,WeatherLink_script,2013-02-25 11:21:00,
2013-02-25 06:26:00,27.9,16.9,30.14,North,359,1.5,3.0,63,0.00,NA,NA,0.00,WeatherLink_script,2013-02-25 11:26:00,
2013-02-25 06:31:00,27.8,16.8,30.15,North,359,1.8,3.0,63,0.00,NA,NA,0.00,WeatherLink_script,2013-02-25 11:31:00,
2013-02-25 06:36:00,27.7,16.8,30.15,North,359,1.6,3.0,63,0.00,NA,NA,0.00,WeatherLink_script,2013-02-25 11:36:00,
2013-02-25 06:41:00,27.6,16.7,30.14,North,359,1.3,2.0,63,0.00,NA,NA,0.00,WeatherLink_script,2013-02-25 11:41:00,
2013-02-25 06:46:00,27.6,16.7,30.14,North,359,1.9,3.0,63,0.00,NA,NA,0.00,WeatherLink_script,2013-02-25 11:46:00,
2013-02-25 06:51:00,27.6,16.7,30.14,North,359,3.1,4.0,63,0.00,NA,NA,0.00,WeatherLink_script,2013-02-25 11:51:00,
2013-02-25 06:56:00,27.5,16.9,30.15,North,359,2.3,3.0,64,0.00,NA,NA,0.00,WeatherLink_script,2013-02-25 11:56:00,
2013-02-25 07:01:00,27.5,16.9,30.14,North,359,2.5,3.0,64,0.00,NA,NA,0.00,WeatherLink_script,2013-02-25 12:01:00,
2013-02-25 07:06:00,27.3,16.8,30.15,North,359,3.5,5.0,64,0.00,NA,NA,0.00,WeatherLink_script,2013-02-25 12:06:00,
2013-02-25 07:11:00,27.3,16.8,30.14,North,359,3.5,4.0,64,0.00,NA,NA,0.00,WeatherLink_script,2013-02-25 12:11:00,
2013-02-25 07:16:00,27.5,16.9,30.14,North,359,3.2,4.0,64,0.00,NA,NA,0.00,WeatherLink_script,2013-02-25 12:16:00,
2013-02-25 07:21:00,27.6,17.4,30.15,North,359,2.4,3.0,65,0.00,NA,NA,0.00,WeatherLink_script,2013-02-25 12:21:00,
2013-02-25 07:26:00,27.6,17.0,30.15,North,359,3.4,4.0,64,0.00,NA,NA,0.00,WeatherLink_script,2013-02-25 12:26:00,
2013-02-25 07:31:00,27.7,17.2,30.16,North,0,3.2,5.0,64,0.00,NA,NA,0.00,WeatherLink_script,2013-02-25 12:31:00,
2013-02-25 07:36:00,27.8,17.2,30.15,North,359,3.8,5.0,64,0.00,NA,NA,0.00,WeatherLink_script,2013-02-25 12:36:00,
2013-02-25 07:41:00,27.9,17.4,30.16,North,359,4.5,5.0,64,0.00,NA,NA,0.00,WeatherLink_script,2013-02-25 12:41:00,
2013-02-25 07:46:00,28.2,17.6,30.16,North,358,3.9,5.0,64,0.00,NA,NA,0.00,WeatherLink_script,2013-02-25 12:46:00,
2013-02-25 07:51:00,28.3,17.7,30.15,NNE,17,3.7,5.0,64,0.00,NA,NA,0.00,WeatherLink_script,2013-02-25 12:51:00,
2013-02-25 07:56:00,28.4,17.8,30.16,NNE,13,3.0,4.0,64,0.00,NA,NA,0.00,WeatherLink_script,2013-02-25 12:56:00,
2013-02-25 08:02:00,28.6,18.0,30.16,NNE,15,4.1,6.0,64,0.00,NA,NA,0.00,WeatherLink_script,2013-02-25 13:02:00,
2013-02-25 08:07:00,28.8,18.2,30.16,NE,41,3.2,4.0,64,0.00,NA,NA,0.00,WeatherLink_script,2013-02-25 13:07:00,
2013-02-25 08:13:00,29.1,18.1,30.16,North,6,4.5,6.0,63,0.00,NA,NA,0.00,WeatherLink_script,2013-02-25 13:13:00,
2013-02-25 08:18:00,29.4,18.3,30.17,NE,55,0.9,3.0,63,0.00,NA,NA,0.00,WeatherLink_script,2013-02-25 13:18:00,
2013-02-25 08:23:00,29.5,18.1,30.16,North,5,3.6,5.0,62,0.00,NA,NA,0.00,WeatherLink_script,2013-02-25 13:23:00,
2013-02-25 08:28:00,29.9,18.4,30.16,ENE,63,2.8,4.0,62,0.00,NA,NA,0.00,WeatherLink_script,2013-02-25 13:28:00,
2013-02-25 08:33:00,29.9,18.1,30.17,ENE,65,0.1,1.0,61,0.00,NA,NA,0.00,WeatherLink_script,2013-02-25 13:33:00,
2013-02-25 08:38:00,30.2,18.4,30.18,ENE,58,1.4,2.0,61,0.00,NA,NA,0.00,WeatherLink_script,2013-02-25 13:38:00,
2013-02-25 08:43:00,30.3,18.5,30.18,ENE,58,2.5,3.0,61,0.00,NA,NA,0.00,WeatherLink_script,2013-02-25 13:43:00,
2013-02-25 08:48:00,30.5,18.7,30.19,NNW,339,1.6,3.0,61,0.00,NA,NA,0.00,WeatherLink_script,2013-02-25 13:48:00,
2013-02-25 08:53:00,30.9,19.1,30.19,NNW,336,0.0,0.0,61,0.00,NA,NA,0.00,WeatherLink_script,2013-02-25 13:53:00,
2013-02-25 08:58:00,31.3,18.6,30.19,NNW,338,2.1,4.0,59,0.00,NA,NA,0.00,WeatherLink_script,2013-02-25 13:58:00,
2013-02-25 09:00:00,34.3,19.9,30.20,NW,322,2.1,4.0,55,0.00,NA,NA,0.00,WeatherLink_script,2013-02-25 14:00:00,
2013-02-25 09:03:00,31.6,18.9,30.19,North,353,1.6,3.0,59,0.00,NA,NA,0.00,WeatherLink_script,2013-02-25 14:03:00,
2013-02-25 09:08:00,31.8,18.7,30.20,NNW,347,1.4,2.0,58,0.00,NA,NA,0.00,WeatherLink_script,2013-02-25 14:08:00,
2013-02-25 09:12:00,35.0,19.6,30.20,North,359,2.3,3.0,53,0.00,NA,NA,0.00,WeatherLink_script,2013-02-25 14:12:00,
2013-02-25 09:13:00,32.2,19.1,30.20,NNW,347,2.3,3.0,58,0.00,NA,NA,0.00,WeatherLink_script,2013-02-25 14:13:00,
2013-02-25 09:16:00,35.0,19.6,30.19,North,0,0.4,2.0,53,0.00,NA,NA,0.00,WeatherLink_script,2013-02-25 14:16:00,
2013-02-25 09:18:00,32.3,18.8,30.20,NNW,347,1.6,2.0,57,0.00,NA,NA,0.00,WeatherLink_script,2013-02-25 14:18:00,
2013-02-25 09:20:00,35.2,19.4,30.20,North,359,1.9,3.0,52,0.00,NA,NA,0.00,WeatherLink_script,2013-02-25 14:20:00,
2013-02-25 09:23:00,32.6,19.1,30.20,NNW,348,1.0,2.0,57,0.00,NA,NA,0.00,WeatherLink_script,2013-02-25 14:23:00,
2013-02-25 09:26:00,35.3,19.5,30.20,North,359,1.4,3.0,52,0.00,NA,NA,0.00,WeatherLink_script,2013-02-25 14:26:00,
2013-02-25 09:27:00,35.5,19.6,30.20,North,359,1.0,3.0,52,0.00,NA,NA,0.00,WeatherLink_script,2013-02-25 14:27:00,
2013-02-25 09:28:00,33.2,19.6,30.20,NNW,348,0.6,2.0,57,0.00,NA,NA,0.00,WeatherLink_script,2013-02-25 14:28:00,
2013-02-25 09:30:00,35.6,19.7,30.20,North,359,1.2,3.0,52,0.00,NA,NA,0.00,WeatherLink_script,2013-02-25 14:30:00,
2013-02-25 09:33:00,33.5,19.9,30.20,NNW,348,2.5,4.0,57,0.00,NA,NA,0.00,WeatherLink_script,2013-02-25 14:33:00,
2013-02-25 09:35:00,36.0,19.6,30.20,North,359,2.7,4.0,51,0.00,NA,NA,0.00,WeatherLink_script,2013-02-25 14:35:00,
2013-02-25 09:37:00,36.0,20.1,30.20,North,359,2.2,3.0,52,0.00,NA,NA,0.00,WeatherLink_script,2013-02-25 14:37:00,
2013-02-25 09:38:00,33.6,19.6,30.20,NW,318,2.7,4.0,56,0.00,NA,NA,0.00,WeatherLink_script,2013-02-25 14:38:00,
2013-02-25 09:41:00,36.2,19.3,30.20,North,11,3.2,5.0,50,0.00,NA,NA,0.00,WeatherLink_script,2013-02-25 14:41:00,
2013-02-25 09:43:00,33.6,19.2,30.20,NW,318,1.1,2.0,55,0.00,NA,NA,0.00,WeatherLink_script,2013-02-25 14:43:00,
2013-02-25 09:46:00,36.3,19.5,30.20,NNE,33,2.6,4.0,50,0.00,NA,NA,0.00,WeatherLink_script,2013-02-25 14:46:00,
2013-02-25 09:47:00,36.4,19.6,30.20,NNE,33,2.1,3.0,50,0.00,NA,NA,0.00,WeatherLink_script,2013-02-25 14:47:00,
2013-02-25 09:48:00,33.9,19.9,30.20,NW,318,2.0,4.0,56,0.00,NA,NA,0.00,WeatherLink_script,2013-02-25 14:48:00,
2013-02-25 09:53:00,34.0,20.0,30.20,NW,317,1.7,3.0,56,0.00,NA,NA,0.00,WeatherLink_script,2013-02-25 14:53:00,
2013-02-25 09:55:00,36.7,19.8,30.20,NNE,33,0.8,2.0,50,0.00,NA,NA,0.00,WeatherLink_script,2013-02-25 14:55:00,
2013-02-25 09:58:00,34.2,19.7,30.20,NW,317,2.3,3.0,55,0.00,NA,NA,0.00,WeatherLink_script,2013-02-25 14:58:00,
2013-02-25 09:59:00,37.2,19.8,30.21,NNE,33,1.3,2.0,49,0.00,NA,NA,0.00,WeatherLink_script,2013-02-25 14:59:00,
2013-02-25 10:00:00,37.2,20.3,30.20,NNE,33,0.9,3.0,50,0.00,NA,NA,0.00,WeatherLink_script,2013-02-25 15:00:00,
2013-02-25 10:02:00,37.5,20.5,30.21,NNE,32,2.1,3.0,50,0.00,NA,NA,0.00,WeatherLink_script,2013-02-25 15:02:00,
2013-02-25 10:03:00,37.6,20.7,30.21,NNE,31,0.6,2.0,50,0.00,NA,NA,0.00,WeatherLink_script,2013-02-25 15:03:00,
2013-02-25 10:04:00,34.6,20.1,30.20,North,355,1.5,2.0,55,0.00,NA,NA,0.00,WeatherLink_script,2013-02-25 15:04:00,
2013-02-25 10:06:00,37.8,19.9,30.21,NNE,31,2.0,3.0,48,0.00,NA,NA,0.00,WeatherLink_script,2013-02-25 15:06:00,
2013-02-25 10:07:00,37.9,20.0,30.21,NE,39,3.7,6.0,48,0.00,NA,NA,0.00,WeatherLink_script,2013-02-25 15:07:00,
2013-02-25 10:08:00,37.9,19.0,30.21,NE,53,2.7,4.0,46,0.00,NA,NA,0.00,WeatherLink_script,2013-02-25 15:08:00,
2013-02-25 10:10:00,34.9,19.5,30.20,North,359,1.6,3.0,53,0.00,NA,NA,0.00,WeatherLink_script,2013-02-25 15:10:00,
2013-02-25 10:12:00,38.0,19.6,30.21,NE,48,1.3,3.0,47,0.00,NA,NA,0.00,WeatherLink_script,2013-02-25 15:12:00,
2013-02-25 10:14:00,38.2,19.3,30.21,NE,48,0.5,1.0,46,0.00,NA,NA,0.00,WeatherLink_script,2013-02-25 15:14:00,
2013-02-25 10:15:00,35.0,19.2,30.19,North,359,1.0,3.0,52,0.00,NA,NA,0.00,WeatherLink_script,2013-02-25 15:15:00,
2013-02-25 10:16:00,38.3,18.8,30.21,NE,48,0.7,2.0,45,0.00,NA,NA,0.00,WeatherLink_script,2013-02-25 15:16:00,
2013-02-25 10:18:00,38.4,19.5,30.21,NE,48,0.3,1.0,46,0.00,NA,NA,0.00,WeatherLink_script,2013-02-25 15:18:00,
2013-02-25 10:20:00,38.5,19.6,30.21,NE,48,0.0,0.0,46,0.00,NA,NA,0.00,WeatherLink_script,2013-02-25 15:20:00,
2013-02-25 10:22:00,35.2,19.4,30.20,North,359,1.9,3.0,52,0.00,NA,NA,0.00,WeatherLink_script,2013-02-25 15:22:00,
2013-02-25 10:24:00,39.0,19.5,30.20,ENE,76,1.7,4.0,45,0.00,NA,NA,0.00,WeatherLink_script,2013-02-25 15:24:00,
2013-02-25 10:28:00,39.2,20.2,30.20,NNE,16,0.4,1.0,46,0.00,NA,NA,0.00,WeatherLink_script,2013-02-25 15:28:00,
2013-02-25 10:30:00,35.5,19.6,30.20,North,359,1.8,3.0,52,0.00,NA,NA,0.00,WeatherLink_script,2013-02-25 15:30:00,
2013-02-25 10:32:00,39.4,20.9,30.20,NNE,17,1.9,3.0,47,0.00,NA,NA,0.00,WeatherLink_script,2013-02-25 15:32:00,
2013-02-25 10:35:00,35.9,20.0,30.20,North,359,1.6,4.0,52,0.00,NA,NA,0.00,WeatherLink_script,2013-02-25 15:35:00,
2013-02-25 10:40:00,36.2,19.8,30.20,North,359,1.5,3.0,51,0.00,NA,NA,0.00,WeatherLink_script,2013-02-25 15:40:00,
2013-02-25 10:50:00,36.6,19.7,30.20,NNE,33,1.3,2.0,50,0.00,NA,NA,0.00,WeatherLink_script,2013-02-25 15:50:00,
2013-02-25 10:55:00,36.7,19.4,30.20,NNE,33,1.1,3.0,49,0.00,NA,NA,0.00,WeatherLink_script,2013-02-25 15:55:00,
2013-02-25 11:03:00,37.3,20.4,30.20,NNE,33,1.0,2.0,50,0.00,NA,NA,0.00,WeatherLink_script,2013-02-25 16:03:00,
2013-02-25 11:11:00,37.9,19.0,30.21,NE,48,2.9,4.0,46,0.00,NA,NA,0.00,WeatherLink_script,2013-02-25 16:11:00,
2013-02-25 11:18:00,38.3,18.8,30.21,NE,48,0.7,2.0,45,0.00,NA,NA,0.00,WeatherLink_script,2013-02-25 16:18:00,
2013-02-25 11:23:00,38.7,20.2,30.20,ENE,57,2.1,3.0,47,0.00,NA,NA,0.00,WeatherLink_script,2013-02-25 16:23:00,
2013-02-25 11:28:00,39.1,19.6,30.20,ENE,65,1.9,4.0,45,0.00,NA,NA,0.00,WeatherLink_script,2013-02-25 16:28:00,
2013-02-25 11:34:00,39.4,20.4,30.20,NNE,17,1.9,3.0,46,0.00,NA,NA,0.00,WeatherLink_script,2013-02-25 16:34:00,
2013-02-25 11:39:00,39.6,19.5,30.20,NNE,32,2.6,4.0,44,0.00,NA,NA,0.00,WeatherLink_script,2013-02-25 16:39:00,
2013-02-25 11:44:00,39.4,19.3,30.19,NNE,20,3.1,5.0,44,0.00,NA,NA,0.00,WeatherLink_script,2013-02-25 16:44:00,
2013-02-25 11:49:00,39.4,18.8,30.19,NE,35,0.2,1.0,43,0.00,NA,NA,0.00,WeatherLink_script,2013-02-25 16:49:00,
2013-02-25 11:54:00,39.9,19.2,30.19,East,85,2.6,4.0,43,0.00,NA,NA,0.00,WeatherLink_script,2013-02-25 16:54:00,
2013-02-25 11:59:00,40.1,19.4,30.19,SSE,156,4.2,5.0,43,0.00,NA,NA,0.00,WeatherLink_script,2013-02-25 16:59:00,
2013-02-25 12:04:00,40.0,19.4,30.18,South,176,0.1,1.0,43,0.00,NA,NA,0.00,WeatherLink_script,2013-02-25 17:04:00,
2013-02-25 12:09:00,40.4,19.7,30.19,SE,137,1.2,4.0,43,0.00,NA,NA,0.00,WeatherLink_script,2013-02-25 17:09:00,
2013-02-25 12:14:00,40.6,19.3,30.19,SE,128,0.8,2.0,42,0.00,NA,NA,0.00,WeatherLink_script,2013-02-25 17:14:00,
2013-02-25 12:19:00,40.6,19.3,30.18,SE,145,0.9,3.0,42,0.00,NA,NA,0.00,WeatherLink_script,2013-02-25 17:19:00,
2013-02-25 12:24:00,40.7,19.4,30.19,SE,139,1.0,3.0,42,0.00,NA,NA,0.00,WeatherLink_script,2013-02-25 17:24:00,
2013-02-25 12:29:00,40.7,19.5,30.19,ENE,71,3.6,5.0,42,0.00,NA,NA,0.00,WeatherLink_script,2013-02-25 17:29:00,
2013-02-25 12:34:00,40.4,18.5,30.18,NE,41,2.0,3.0,41,0.00,NA,NA,0.00,WeatherLink_script,2013-02-25 17:34:00,
2013-02-25 12:39:00,40.0,18.8,30.18,NE,41,3.8,5.0,42,0.00,NA,NA,0.00,WeatherLink_script,2013-02-25 17:39:00,
2013-02-25 12:44:00,39.9,18.7,30.18,NE,46,1.1,2.0,42,0.00,NA,NA,0.00,WeatherLink_script,2013-02-25 17:44:00,
2013-02-25 12:49:00,39.9,18.7,30.19,NE,45,2.6,5.0,42,0.00,NA,NA,0.00,WeatherLink_script,2013-02-25 17:49:00,
2013-02-25 12:54:00,39.9,18.7,30.18,South,177,2.7,4.0,42,0.00,NA,NA,0.00,WeatherLink_script,2013-02-25 17:54:00,
2013-02-25 12:59:00,40.1,19.4,30.18,SSE,147,1.6,3.0,43,0.00,NA,NA,0.00,WeatherLink_script,2013-02-25 17:59:00,
2013-02-25 13:04:00,40.3,19.1,30.18,ENE,77,0.8,2.0,42,0.00,NA,NA,0.00,WeatherLink_script,2013-02-25 18:04:00,
2013-02-25 13:09:00,40.6,19.3,30.17,ENE,77,0.2,1.0,42,0.00,NA,NA,0.00,WeatherLink_script,2013-02-25 18:09:00,
2013-02-25 13:14:00,41.1,19.7,30.17,ENE,76,2.0,4.0,42,0.00,NA,NA,0.00,WeatherLink_script,2013-02-25 18:14:00,
2013-02-25 13:19:00,41.2,18.7,30.16,ENE,76,2.6,4.0,40,0.00,NA,NA,0.00,WeatherLink_script,2013-02-25 18:19:00,
2013-02-25 13:24:00,40.9,18.5,30.16,ENE,75,1.0,3.0,40,0.00,NA,NA,0.00,WeatherLink_script,2013-02-25 18:24:00,
2013-02-25 13:29:00,40.9,18.5,30.15,ENE,73,2.2,3.0,40,0.00,NA,NA,0.00,WeatherLink_script,2013-02-25 18:29:00,
2013-02-25 13:34:00,40.7,19.4,30.15,North,350,1.5,2.0,42,0.00,NA,NA,0.00,WeatherLink_script,2013-02-25 18:34:00,
2013-02-25 13:39:00,40.9,19.0,30.15,ENE,62,2.8,4.0,41,0.00,NA,NA,0.00,WeatherLink_script,2013-02-25 18:39:00,
2013-02-25 13:44:00,41.0,19.1,30.15,East,84,2.9,4.0,41,0.00,NA,NA,0.00,WeatherLink_script,2013-02-25 18:44:00,
2013-02-25 13:49:00,41.0,18.5,30.14,ENE,76,2.5,5.0,40,0.00,NA,NA,0.00,WeatherLink_script,2013-02-25 18:49:00,
2013-02-25 13:54:00,41.0,20.2,30.15,ESE,102,0.8,2.0,43,0.00,NA,NA,0.00,WeatherLink_script,2013-02-25 18:54:00,
2013-02-25 13:59:00,41.4,18.9,30.15,NNE,15,0.1,1.0,40,0.00,NA,NA,0.00,WeatherLink_script,2013-02-25 18:59:00,
2013-02-25 14:04:00,41.7,19.2,30.15,NNE,13,3.9,6.0,40,0.00,NA,NA,0.00,WeatherLink_script,2013-02-25 19:04:00,
2013-02-25 14:09:00,41.7,19.2,30.15,North,10,0.4,1.0,40,0.00,NA,NA,0.00,WeatherLink_script,2013-02-25 19:09:00,
2013-02-25 14:14:00,41.7,18.6,30.14,NNE,22,1.4,3.0,39,0.00,NA,NA,0.00,WeatherLink_script,2013-02-25 19:14:00,
2013-02-25 14:19:00,41.6,18.5,30.14,NNE,22,0.9,2.0,39,0.00,NA,NA,0.00,WeatherLink_script,2013-02-25 19:19:00,
2013-02-25 14:24:00,41.7,19.2,30.14,NW,314,0.8,2.0,40,0.00,NA,NA,0.00,WeatherLink_script,2013-02-25 19:24:00,
2013-02-25 14:29:00,42.0,20.0,30.14,NW,314,0.5,1.0,41,0.00,NA,NA,0.00,WeatherLink_script,2013-02-25 19:29:00,
2013-02-25 14:34:00,42.3,19.1,30.14,NW,311,2.4,3.0,39,0.00,NA,NA,0.00,WeatherLink_script,2013-02-25 19:34:00,
2013-02-25 14:39:00,42.0,18.8,30.14,NW,319,0.7,2.0,39,0.00,NA,NA,0.00,WeatherLink_script,2013-02-25 19:39:00,
2013-02-25 14:44:00,41.9,18.8,30.14,NW,325,1.6,2.0,39,0.00,NA,NA,0.00,WeatherLink_script,2013-02-25 19:44:00,
2013-02-25 14:49:00,41.9,19.4,30.14,NNE,21,3.1,5.0,40,0.00,NA,NA,0.00,WeatherLink_script,2013-02-25 19:49:00,
2013-02-25 14:54:00,41.9,18.2,30.14,NE,37,1.7,3.0,38,0.00,NA,NA,0.00,WeatherLink_script,2013-02-25 19:54:00,
2013-02-25 14:59:00,41.9,18.8,30.14,NE,38,0.5,2.0,39,0.00,NA,NA,0.00,WeatherLink_script,2013-02-25 19:59:00,
2013-02-25 15:04:00,41.9,18.8,30.13,ESE,114,0.2,1.0,39,0.00,NA,NA,0.00,WeatherLink_script,2013-02-25 20:04:00,
2013-02-25 15:09:00,41.9,18.8,30.14,ENE,58,0.1,1.0,39,0.00,NA,NA,0.00,WeatherLink_script,2013-02-25 20:09:00,
2013-02-25 15:14:00,42.0,19.4,30.13,NE,42,3.6,5.0,40,0.00,NA,NA,0.00,WeatherLink_script,2013-02-25 20:14:00,
2013-02-25 15:19:00,41.7,18.6,30.14,ENE,77,2.7,5.0,39,0.00,NA,NA,0.00,WeatherLink_script,2013-02-25 20:19:00,
2013-02-25 15:24:00,41.6,18.5,30.14,SE,137,1.2,2.0,39,0.00,NA,NA,0.00,WeatherLink_script,2013-02-25 20:24:00,
2013-02-25 15:29:00,41.7,19.8,30.14,SE,137,0.5,1.0,41,0.00,NA,NA,0.00,WeatherLink_script,2013-02-25 20:29:00,
2013-02-25 15:34:00,41.9,19.3,30.14,SE,137,0.8,2.0,40,0.00,NA,NA,0.00,WeatherLink_script,2013-02-25 20:34:00,
2013-02-25 15:39:00,42.0,20.6,30.14,SE,137,0.3,1.0,42,0.00,NA,NA,0.00,WeatherLink_script,2013-02-25 20:39:00,
2013-02-25 15:44:00,42.1,19.6,30.14,SE,137,2.1,3.0,40,0.00,NA,NA,0.00,WeatherLink_script,2013-02-25 20:44:00,
2013-02-25 15:49:00,42.4,21.0,30.13,SE,133,0.6,1.0,42,0.00,NA,NA,0.00,WeatherLink_script,2013-02-25 20:49:00,
2013-02-25 15:54:00,42.6,20.0,30.14,SE,138,0.7,1.0,40,0.00,NA,NA,0.00,WeatherLink_script,2013-02-25 20:54:00,
2013-02-25 15:59:00,42.7,20.7,30.14,SE,138,1.3,2.0,41,0.00,NA,NA,0.00,WeatherLink_script,2013-02-25 20:59:00,
2013-02-25 16:04:00,42.9,20.8,30.14,SE,138,1.0,4.0,41,0.00,NA,NA,0.00,WeatherLink_script,2013-02-25 21:04:00,
2013-02-25 16:09:00,43.0,19.8,30.14,SE,138,0.9,2.0,39,0.00,NA,NA,0.00,WeatherLink_script,2013-02-25 21:09:00,
2013-02-25 16:14:00,42.9,19.7,30.14,SSE,161,2.4,4.0,39,0.00,NA,NA,0.00,WeatherLink_script,2013-02-25 21:14:00,
2013-02-25 16:19:00,42.9,19.7,30.14,SSW,201,2.4,5.0,39,0.00,NA,NA,0.00,WeatherLink_script,2013-02-25 21:19:00,
2013-02-25 16:24:00,42.9,20.3,30.14,SW,220,2.2,3.0,40,0.00,NA,NA,0.00,WeatherLink_script,2013-02-25 21:24:00,
2013-02-25 16:29:00,42.9,20.3,30.14,SW,220,1.5,3.0,40,0.00,NA,NA,0.00,WeatherLink_script,2013-02-25 21:29:00,
2013-02-25 16:34:00,43.0,20.9,30.15,SW,220,1.7,3.0,41,0.00,NA,NA,0.00,WeatherLink_script,2013-02-25 21:34:00,
2013-02-25 16:39:00,43.0,20.3,30.15,SW,220,1.3,2.0,40,0.00,NA,NA,0.00,WeatherLink_script,2013-02-25 21:39:00,
2013-02-25 16:44:00,43.0,20.9,30.14,SW,220,0.0,0.0,41,0.00,NA,NA,0.00,WeatherLink_script,2013-02-25 21:44:00,
2013-02-25 16:49:00,42.9,20.3,30.14,SW,220,0.7,2.0,40,0.00,NA,NA,0.00,WeatherLink_script,2013-02-25 21:49:00,
2013-02-25 16:54:00,42.9,20.2,30.14,SW,218,0.0,0.0,40,0.00,NA,NA,0.00,WeatherLink_script,2013-02-25 21:54:00,
2013-02-25 16:59:00,42.7,20.6,30.14,SW,218,0.1,1.0,41,0.00,NA,NA,0.00,WeatherLink_script,2013-02-25 21:59:00,
2013-02-25 17:04:00,42.3,20.3,30.14,SW,217,2.2,4.0,41,0.00,NA,NA,0.00,WeatherLink_script,2013-02-25 22:04:00,
2013-02-25 17:09:00,42.2,20.7,30.14,SSE,158,1.9,3.0,42,0.00,NA,NA,0.00,WeatherLink_script,2013-02-25 22:09:00,
2013-02-25 17:14:00,41.7,20.3,30.15,SSE,158,0.0,0.0,42,0.00,NA,NA,0.00,WeatherLink_script,2013-02-25 22:14:00,
2013-02-25 17:19:00,41.6,20.2,30.15,SSE,158,0.9,3.0,42,0.00,NA,NA,0.00,WeatherLink_script,2013-02-25 22:19:00,
2013-02-25 17:24:00,41.4,20.6,30.14,SSE,158,0.1,1.0,43,0.00,NA,NA,0.00,WeatherLink_script,2013-02-25 22:24:00,
2013-02-25 17:29:00,41.3,20.5,30.14,SSE,158,0.0,0.0,43,0.00,NA,NA,0.00,WeatherLink_script,2013-02-25 22:29:00,
2013-02-25 17:34:00,41.0,19.7,30.13,SSE,158,1.3,3.0,42,0.00,NA,NA,0.00,WeatherLink_script,2013-02-25 22:34:00,
2013-02-25 17:39:00,40.9,20.7,30.14,SSE,158,0.8,3.0,44,0.00,NA,NA,0.00,WeatherLink_script,2013-02-25 22:39:00,
2013-02-25 17:44:00,40.7,20.0,30.14,SSE,158,1.7,3.0,43,0.00,NA,NA,0.00,WeatherLink_script,2013-02-25 22:44:00,
2013-02-25 17:49:00,40.4,20.3,30.14,SSE,158,0.6,2.0,44,0.00,NA,NA,0.00,WeatherLink_script,2013-02-25 22:49:00,
2013-02-25 17:54:00,40.3,19.6,30.14,SSE,158,0.8,2.0,43,0.00,NA,NA,0.00,WeatherLink_script,2013-02-25 22:54:00,
2013-02-25 17:59:00,40.0,19.3,30.14,SSE,158,0.0,0.0,43,0.00,NA,NA,0.00,WeatherLink_script,2013-02-25 22:59:00,
2013-02-25 18:04:00,39.9,19.8,30.14,SSE,158,0.0,0.0,44,0.00,NA,NA,0.00,WeatherLink_script,2013-02-25 23:04:00,
2013-02-25 18:09:00,39.6,20.0,30.15,SSE,158,0.0,0.0,45,0.00,NA,NA,0.00,WeatherLink_script,2013-02-25 23:09:00,
2013-02-25 18:14:00,39.3,19.8,30.15,SSE,158,0.0,0.0,45,0.00,NA,NA,0.00,WeatherLink_script,2013-02-25 23:14:00,
2013-02-25 18:19:00,39.0,19.5,30.15,SSE,158,0.6,1.0,45,0.00,NA,NA,0.00,WeatherLink_script,2013-02-25 23:19:00,
2013-02-25 18:24:00,38.7,19.7,30.15,SSE,158,1.0,2.0,46,0.00,NA,NA,0.00,WeatherLink_script,2013-02-25 23:24:00,
2013-02-25 18:29:00,38.6,20.1,30.16,SSE,158,1.0,2.0,47,0.00,NA,NA,0.00,WeatherLink_script,2013-02-25 23:29:00,
2013-02-25 18:34:00,38.3,19.9,30.16,SSE,158,0.8,2.0,47,0.00,NA,NA,0.00,WeatherLink_script,2013-02-25 23:34:00,
2013-02-25 18:39:00,38.2,19.8,30.16,SSE,158,0.0,0.0,47,0.00,NA,NA,0.00,WeatherLink_script,2013-02-25 23:39:00,
2013-02-25 18:44:00,38.0,20.0,30.16,SSE,158,1.0,2.0,48,0.00,NA,NA,0.00,WeatherLink_script,2013-02-25 23:44:00,
2013-02-25 18:49:00,37.7,19.8,30.16,SSE,158,0.0,0.0,48,0.00,NA,NA,0.00,WeatherLink_script,2013-02-25 23:49:00,
2013-02-25 18:54:00,37.6,19.7,30.16,SSE,158,1.1,2.0,48,0.00,NA,NA,0.00,WeatherLink_script,2013-02-25 23:54:00,
2013-02-25 18:59:00,37.6,19.7,30.16,SSE,158,0.9,2.0,48,0.00,NA,NA,0.00,WeatherLink_script,2013-02-25 23:59:00,
2013-02-25 19:04:00,37.4,19.6,30.16,SSE,156,0.8,1.0,48,0.00,NA,NA,0.00,WeatherLink_script,2013-02-26 00:04:00,
2013-02-25 19:09:00,37.3,19.4,30.17,SSE,157,1.2,2.0,48,0.00,NA,NA,0.00,WeatherLink_script,2013-02-26 00:09:00,
2013-02-25 19:14:00,37.2,19.3,30.17,SSE,157,0.0,0.0,48,0.00,NA,NA,0.00,WeatherLink_script,2013-02-26 00:14:00,
2013-02-25 19:19:00,37.0,19.6,30.17,SSE,157,1.4,2.0,49,0.00,NA,NA,0.00,WeatherLink_script,2013-02-26 00:19:00,
2013-02-25 19:24:00,36.7,19.8,30.17,SSE,157,1.7,2.0,50,0.00,NA,NA,0.00,WeatherLink_script,2013-02-26 00:24:00,
2013-02-25 19:29:00,36.5,19.6,30.17,SSE,157,1.1,3.0,50,0.00,NA,NA,0.00,WeatherLink_script,2013-02-26 00:29:00,
2013-02-25 19:34:00,36.3,19.5,30.17,SSE,157,1.2,2.0,50,0.00,NA,NA,0.00,WeatherLink_script,2013-02-26 00:34:00,
2013-02-25 19:39:00,36.1,19.8,30.17,SSE,156,1.3,2.0,51,0.00,NA,NA,0.00,WeatherLink_script,2013-02-26 00:39:00,
2013-02-25 19:44:00,36.1,19.7,30.17,SSE,156,2.2,3.0,51,0.00,NA,NA,0.00,WeatherLink_script,2013-02-26 00:44:00,
2013-02-25 19:49:00,35.9,19.6,30.18,SSE,156,2.1,3.0,51,0.00,NA,NA,0.00,WeatherLink_script,2013-02-26 00:49:00,
2013-02-25 19:54:00,35.8,19.4,30.18,SSE,156,2.0,3.0,51,0.00,NA,NA,0.00,WeatherLink_script,2013-02-26 00:54:00,
2013-02-25 19:59:00,35.6,19.3,30.17,SSE,157,1.6,3.0,51,0.00,NA,NA,0.00,WeatherLink_script,2013-02-26 00:59:00,
2013-02-25 20:00:00,34.8,19.4,30.16,East,99,0.6,2.0,53,0.00,NA,NA,0.00,WeatherLink_script,2013-02-26 01:00:00,
2013-02-25 20:02:00,34.8,19.4,30.16,East,99,0.3,1.0,53,0.00,NA,NA,0.00,WeatherLink_script,2013-02-26 01:02:00,
2013-02-25 20:03:00,34.7,19.4,30.16,East,99,0.1,1.0,53,0.00,NA,NA,0.00,WeatherLink_script,2013-02-26 01:03:00,
2013-02-25 20:04:00,35.6,19.7,30.18,SSE,156,2.5,4.0,52,0.00,NA,NA,0.00,WeatherLink_script,2013-02-26 01:04:00,
2013-02-25 20:07:00,34.8,19.4,30.17,East,99,0.5,1.0,53,0.00,NA,NA,0.00,WeatherLink_script,2013-02-26 01:07:00,
2013-02-25 20:09:00,35.4,19.6,30.18,SSE,157,2.1,3.0,52,0.00,NA,NA,0.00,WeatherLink_script,2013-02-26 01:09:00,
2013-02-25 20:10:00,34.8,19.5,30.17,East,99,1.4,3.0,53,0.00,NA,NA,0.00,WeatherLink_script,2013-02-26 01:10:00,
2013-02-25 20:13:00,34.9,19.5,30.17,East,99,0.3,1.0,53,0.00,NA,NA,0.00,WeatherLink_script,2013-02-26 01:13:00,
2013-02-25 20:14:00,35.3,19.4,30.18,SSE,157,2.2,3.0,52,0.00,NA,NA,0.00,WeatherLink_script,2013-02-26 01:14:00,
2013-02-25 20:15:00,34.9,19.5,30.17,East,99,0.0,0.0,53,0.00,NA,NA,0.00,WeatherLink_script,2013-02-26 01:15:00,
2013-02-25 20:19:00,35.2,19.4,30.17,SSE,156,1.8,3.0,52,0.00,NA,NA,0.00,WeatherLink_script,2013-02-26 01:19:00,
2013-02-25 20:21:00,34.9,19.9,30.17,East,99,0.0,0.0,54,0.00,NA,NA,0.00,WeatherLink_script,2013-02-26 01:21:00,
2013-02-25 20:22:00,34.9,20.0,30.17,East,99,0.4,2.0,54,0.00,NA,NA,0.00,WeatherLink_script,2013-02-26 01:22:00,
2013-02-25 20:23:00,34.9,20.0,30.17,East,99,1.0,2.0,54,0.00,NA,NA,0.00,WeatherLink_script,2013-02-26 01:23:00,
2013-02-25 20:24:00,35.2,19.3,30.18,SSE,157,0.6,1.0,52,0.00,NA,NA,0.00,WeatherLink_script,2013-02-26 01:24:00,
2013-02-25 20:26:00,34.9,20.0,30.17,East,99,0.3,2.0,54,0.00,NA,NA,0.00,WeatherLink_script,2013-02-26 01:26:00,
2013-02-25 20:27:00,34.9,20.0,30.17,East,99,0.3,1.0,54,0.00,NA,NA,0.00,WeatherLink_script,2013-02-26 01:27:00,
2013-02-25 20:28:00,34.9,20.0,30.17,East,99,0.3,1.0,54,0.00,NA,NA,0.00,WeatherLink_script,2013-02-26 01:28:00,
2013-02-25 20:29:00,35.2,19.8,30.17,SSE,156,1.4,2.0,53,0.00,NA,NA,0.00,WeatherLink_script,2013-02-26 01:29:00,
2013-02-25 20:30:00,34.9,20.0,30.17,East,99,0.7,2.0,54,0.00,NA,NA,0.00,WeatherLink_script,2013-02-26 01:30:00,
2013-02-25 20:31:00,34.9,20.0,30.17,East,99,0.5,1.0,54,0.00,NA,NA,0.00,WeatherLink_script,2013-02-26 01:31:00,
2013-02-25 20:33:00,34.9,20.0,30.17,East,99,1.0,3.0,54,0.00,NA,NA,0.00,WeatherLink_script,2013-02-26 01:33:00,
2013-02-25 20:34:00,35.0,19.2,30.16,SSE,157,0.5,1.0,52,0.00,NA,NA,0.00,WeatherLink_script,2013-02-26 01:34:00,
2013-02-25 20:35:00,34.9,20.0,30.18,East,99,0.7,2.0,54,0.00,NA,NA,0.00,WeatherLink_script,2013-02-26 01:35:00,
2013-02-25 20:37:00,34.9,20.0,30.18,East,99,0.5,1.0,54,0.00,NA,NA,0.00,WeatherLink_script,2013-02-26 01:37:00,
2013-02-25 20:39:00,35.0,19.6,30.17,SSE,157,0.9,2.0,53,0.00,NA,NA,0.00,WeatherLink_script,2013-02-26 01:39:00,
2013-02-25 20:44:00,34.9,19.5,30.17,SSE,157,0.1,1.0,53,0.00,NA,NA,0.00,WeatherLink_script,2013-02-26 01:44:00,
2013-02-25 20:50:00,35.0,19.6,30.16,East,99,0.0,0.0,53,0.00,NA,NA,0.00,WeatherLink_script,2013-02-26 01:50:00,
2013-02-25 20:55:00,35.0,19.6,30.16,East,99,0.0,0.0,53,0.00,NA,NA,0.00,WeatherLink_script,2013-02-26 01:55:00,
2013-02-25 21:02:00,34.8,19.4,30.16,East,99,0.6,2.0,53,0.00,NA,NA,0.00,WeatherLink_script,2013-02-26 02:02:00,
2013-02-25 21:07:00,34.7,19.4,30.16,East,99,0.6,1.0,53,0.00,NA,NA,0.00,WeatherLink_script,2013-02-26 02:07:00,
2013-02-25 21:13:00,34.9,19.5,30.18,East,99,0.7,2.0,53,0.00,NA,NA,0.00,WeatherLink_script,2013-02-26 02:13:00,
2013-02-25 21:19:00,34.9,20.0,30.17,East,99,0.0,0.0,54,0.00,NA,NA,0.00,WeatherLink_script,2013-02-26 02:19:00,
2013-02-25 21:26:00,34.9,19.9,30.17,East,99,1.2,3.0,54,0.00,NA,NA,0.00,WeatherLink_script,2013-02-26 02:26:00,
2013-02-25 21:31:00,34.9,20.0,30.17,East,99,0.3,1.0,54,0.00,NA,NA,0.00,WeatherLink_script,2013-02-26 02:31:00,
2013-02-25 21:36:00,34.9,20.0,30.18,East,99,1.1,2.0,54,0.00,NA,NA,0.00,WeatherLink_script,2013-02-26 02:36:00,
2013-02-25 21:41:00,34.9,20.0,30.18,East,99,0.0,0.0,54,0.00,NA,NA,0.00,WeatherLink_script,2013-02-26 02:41:00,
2013-02-25 21:46:00,34.8,19.9,30.18,East,99,0.1,1.0,54,0.00,NA,NA,0.00,WeatherLink_script,2013-02-26 02:46:00,
2013-02-25 21:51:00,34.7,19.8,30.17,East,99,0.0,0.0,54,0.00,NA,NA,0.00,WeatherLink_script,2013-02-26 02:51:00,
2013-02-25 21:56:00,34.6,19.7,30.17,East,99,0.0,0.0,54,0.00,NA,NA,0.00,WeatherLink_script,2013-02-26 02:56:00,
2013-02-25 22:01:00,34.4,19.5,30.16,East,99,0.0,0.0,54,0.00,NA,NA,0.00,WeatherLink_script,2013-02-26 03:01:00,
2013-02-25 22:07:00,34.5,19.6,30.16,East,99,0.2,2.0,54,0.00,NA,NA,0.00,WeatherLink_script,2013-02-26 03:07:00,
2013-02-25 22:12:00,34.5,19.6,30.15,East,99,0.0,0.0,54,0.00,NA,NA,0.00,WeatherLink_script,2013-02-26 03:12:00,
2013-02-25 22:17:00,34.3,19.8,30.16,East,99,0.0,0.0,55,0.00,NA,NA,0.00,WeatherLink_script,2013-02-26 03:17:00,
2013-02-25 22:22:00,34.2,19.7,30.16,East,99,0.0,0.0,55,0.00,NA,NA,0.00,WeatherLink_script,2013-02-26 03:22:00,
2013-02-25 22:28:00,33.9,19.5,30.16,East,99,0.0,0.0,55,0.00,NA,NA,0.00,WeatherLink_script,2013-02-26 03:28:00,
2013-02-25 22:33:00,33.7,19.7,30.15,East,97,0.0,0.0,56,0.00,NA,NA,0.00,WeatherLink_script,2013-02-26 03:33:00,
2013-02-25 22:38:00,33.6,19.6,30.15,East,97,0.0,0.0,56,0.00,NA,NA,0.00,WeatherLink_script,2013-02-26 03:38:00,
2013-02-25 22:43:00,33.5,19.9,30.16,East,97,0.0,0.0,57,0.00,NA,NA,0.00,WeatherLink_script,2013-02-26 03:43:00,
2013-02-25 22:48:00,33.3,19.3,30.16,East,97,0.0,0.0,56,0.00,NA,NA,0.00,WeatherLink_script,2013-02-26 03:48:00,
2013-02-25 22:53:00,33.0,19.1,30.17,East,97,0.0,0.0,56,0.00,NA,NA,0.00,WeatherLink_script,2013-02-26 03:53:00,
2013-02-25 22:59:00,32.6,19.1,30.18,East,97,0.0,0.0,57,0.00,NA,NA,0.00,WeatherLink_script,2013-02-26 03:59:00,
2013-02-25 23:01:00,31.7,18.6,30.17,East,97,0.0,0.0,58,0.00,NA,NA,0.00,WeatherLink_script,2013-02-26 04:01:00,
2013-02-25 23:03:00,31.7,18.6,30.16,East,97,0.0,0.0,58,0.00,NA,NA,0.00,WeatherLink_script,2013-02-26 04:03:00,
2013-02-25 23:04:00,32.3,18.8,30.17,East,97,0.0,0.0,57,0.00,NA,NA,0.00,WeatherLink_script,2013-02-26 04:04:00,
2013-02-25 23:05:00,31.7,18.7,30.16,East,97,0.0,0.0,58,0.00,NA,NA,0.00,WeatherLink_script,2013-02-26 04:05:00,
2013-02-25 23:07:00,31.7,18.6,30.16,East,97,0.0,0.0,58,0.00,NA,NA,0.00,WeatherLink_script,2013-02-26 04:07:00,
2013-02-25 23:09:00,32.2,18.7,30.17,East,97,0.0,0.0,57,0.00,NA,NA,0.00,WeatherLink_script,2013-02-26 04:09:00,
2013-02-25 23:10:00,31.6,18.5,30.16,East,97,0.0,0.0,58,0.00,NA,NA,0.00,WeatherLink_script,2013-02-26 04:10:00,
2013-02-25 23:11:00,31.6,18.5,30.17,East,97,0.0,0.0,58,0.00,NA,NA,0.00,WeatherLink_script,2013-02-26 04:11:00,
2013-02-25 23:12:00,31.6,18.5,30.16,East,97,0.0,0.0,58,0.00,NA,NA,0.00,WeatherLink_script,2013-02-26 04:12:00,
2013-02-25 23:13:00,31.6,18.5,30.16,East,97,0.0,0.0,58,0.00,NA,NA,0.00,WeatherLink_script,2013-02-26 04:13:00,
2013-02-25 23:14:00,32.2,19.1,30.17,East,97,0.0,0.0,58,0.00,NA,NA,0.00,WeatherLink_script,2013-02-26 04:14:00,
2013-02-25 23:15:00,31.6,18.9,30.16,East,97,0.0,0.0,59,0.00,NA,NA,0.00,WeatherLink_script,2013-02-26 04:15:00,
2013-02-25 23:16:00,31.6,18.9,30.17,East,97,0.3,1.0,59,0.00,NA,NA,0.00,WeatherLink_script,2013-02-26 04:16:00,
2013-02-25 23:17:00,31.5,18.9,30.17,East,97,0.5,1.0,59,0.00,NA,NA,0.00,WeatherLink_script,2013-02-26 04:17:00,
2013-02-25 23:18:00,31.6,18.9,30.16,East,97,0.4,1.0,59,0.00,NA,NA,0.00,WeatherLink_script,2013-02-26 04:18:00,
2013-02-25 23:19:00,32.1,18.6,30.18,East,97,0.0,0.0,57,0.00,NA,NA,0.00,WeatherLink_script,2013-02-26 04:19:00,
2013-02-25 23:20:00,31.7,19.0,30.16,East,97,0.2,1.0,59,0.00,NA,NA,0.00,WeatherLink_script,2013-02-26 04:20:00,
2013-02-25 23:21:00,31.7,19.0,30.16,East,97,0.2,1.0,59,0.00,NA,NA,0.00,WeatherLink_script,2013-02-26 04:21:00,
2013-02-25 23:22:00,31.7,18.6,30.16,East,97,0.3,1.0,58,0.00,NA,NA,0.00,WeatherLink_script,2013-02-26 04:22:00,
2013-02-25 23:24:00,32.0,18.5,30.17,East,97,0.0,0.0,57,0.00,NA,NA,0.00,WeatherLink_script,2013-02-26 04:24:00,
2013-02-25 23:26:00,31.7,18.7,30.16,East,97,0.1,1.0,58,0.00,NA,NA,0.00,WeatherLink_script,2013-02-26 04:26:00,
2013-02-25 23:28:00,31.7,18.7,30.16,East,97,0.0,0.0,58,0.00,NA,NA,0.00,WeatherLink_script,2013-02-26 04:28:00,
2013-02-25 23:29:00,31.9,18.8,30.17,East,97,0.0,0.0,58,0.00,NA,NA,0.00,WeatherLink_script,2013-02-26 04:29:00,
2013-02-25 23:30:00,31.8,18.7,30.16,East,97,0.0,0.0,58,0.00,NA,NA,0.00,WeatherLink_script,2013-02-26 04:30:00,
2013-02-25 23:32:00,31.7,18.7,30.16,East,97,0.0,0.0,58,0.00,NA,NA,0.00,WeatherLink_script,2013-02-26 04:32:00,
2013-02-25 23:34:00,31.9,18.8,30.17,East,97,0.0,0.0,58,0.00,NA,NA,0.00,WeatherLink_script,2013-02-26 04:34:00,
2013-02-25 23:36:00,31.6,19.0,30.16,East,97,0.0,0.0,59,0.00,NA,NA,0.00,WeatherLink_script,2013-02-26 04:36:00,
2013-02-25 23:38:00,31.6,18.9,30.16,East,97,0.0,0.0,59,0.00,NA,NA,0.00,WeatherLink_script,2013-02-26 04:38:00,
2013-02-25 23:39:00,31.9,18.8,30.17,East,97,0.0,0.0,58,0.00,NA,NA,0.00,WeatherLink_script,2013-02-26 04:39:00,
2013-02-25 23:40:00,31.6,18.5,30.17,East,97,0.0,0.0,58,0.00,NA,NA,0.00,WeatherLink_script,2013-02-26 04:40:00,
2013-02-25 23:42:00,31.6,18.5,30.17,East,97,0.0,0.0,58,0.00,NA,NA,0.00,WeatherLink_script,2013-02-26 04:42:00,
2013-02-25 23:43:00,31.6,18.5,30.17,East,97,0.0,0.0,58,0.00,NA,NA,0.00,WeatherLink_script,2013-02-26 04:43:00,
2013-02-25 23:44:00,31.9,18.8,30.17,East,97,0.0,0.0,58,0.00,NA,NA,0.00,WeatherLink_script,2013-02-26 04:44:00,
2013-02-25 23:45:00,31.6,18.5,30.18,East,97,0.0,0.0,58,0.00,NA,NA,0.00,WeatherLink_script,2013-02-26 04:45:00,
2013-02-25 23:46:00,31.6,18.5,30.18,East,97,0.0,0.0,58,0.00,NA,NA,0.00,WeatherLink_script,2013-02-26 04:46:00,
2013-02-25 23:47:00,31.6,18.5,30.18,East,97,0.0,0.0,58,0.00,NA,NA,0.00,WeatherLink_script,2013-02-26 04:47:00,
2013-02-25 23:49:00,31.8,18.7,30.17,East,97,0.0,0.0,58,0.00,NA,NA,0.00,WeatherLink_script,2013-02-26 04:49:00,
2013-02-25 23:50:00,31.6,18.5,30.19,East,97,0.0,0.0,58,0.00,NA,NA,0.00,WeatherLink_script,2013-02-26 04:50:00,
2013-02-25 23:51:00,31.6,18.5,30.19,East,97,0.0,0.0,58,0.00,NA,NA,0.00,WeatherLink_script,2013-02-26 04:51:00,
2013-02-25 23:53:00,31.5,18.5,30.19,East,97,0.0,0.0,58,0.00,NA,NA,0.00,WeatherLink_script,2013-02-26 04:53:00,
2013-02-25 23:54:00,31.7,18.7,30.17,East,97,0.1,1.0,58,0.00,NA,NA,0.00,WeatherLink_script,2013-02-26 04:54:00,
2013-02-25 23:55:00,31.5,18.4,30.18,East,97,0.0,0.0,58,0.00,NA,NA,0.00,WeatherLink_script,2013-02-26 04:55:00,
2013-02-25 23:56:00,31.5,18.8,30.18,East,97,0.0,0.0,59,0.00,NA,NA,0.00,WeatherLink_script,2013-02-26 04:56:00,
2013-02-25 23:57:00,31.4,18.8,30.18,East,97,0.0,0.0,59,0.00,NA,NA,0.00,WeatherLink_script,2013-02-26 04:57:00,
2013-02-25 23:59:00,31.7,18.7,30.17,East,97,0.0,0.0,58,0.00,NA,NA,0.00,WeatherLink_script,2013-02-26 04:59:00,